[[{"header":{"parameterUnit":"m.s-1","parameterCategory":1,"la1":30.2991,"la2":30.254,"lo1":-89.0895,"lo2":-89.0444,"dy":0.0017,"dx":0.0017,"nx":28,"ny":28,"refTime":"2023-08-31T09:00:00:Z","depth":0,"parameterNumber":2,"parameterNumberName":"U-component_of_WINDS"},"data":[0,0,0,0,0,0,0,0,0,0,0,0,0,0,0,0,0,0,0,0,0,0,0,0,0,0,0,0,0,0,0,0,0,0,0,0,0,0,0,0,0,0,0,0,0,0,0,0,0,0,0,0,0,0,0,0,0,0,-1.6828,-1.6827,0,-1.6701,-1.6699,-1.6698,-1.6582,-1.6581,-1.6579,-1.6578,-1.6444,-1.6442,-1.6439,0,0,0,0,0,0,0,0,0,0,0,0,0,-1.6967,-1.6965,-1.6828,-1.6827,-1.6825,-1.6701,-1.6699,-1.6697,-1.6582,-1.6581,-1.6579,-1.6577,-1.6445,-1.6442,-1.6439,0,0,0,0,0,0,0,0,0,0,0,0,0,-1.688,-1.6965,-1.6829,-1.6753,-1.6745,-1.6701,-1.6699,-1.6697,-1.6583,-1.6581,-1.6579,-1.6577,-1.6445,-1.6442,-1.6439,-1.6459,0,0,-1.6428,-1.6427,0,0,0,0,0,0,0,0,-1.6885,-1.6875,-1.6766,-1.6758,-1.6749,-1.6655,-1.6699,-1.6617,-1.6583,-1.6644,-1.6578,-1.6576,-1.6516,-1.6506,-1.6487,-1.6452,-1.6447,-1.6428,-1.6426,-1.6424,-1.6423,0,0,0,0,0,0,0,-1.6891,-1.688,-1.6778,-1.6764,-1.6754,-1.6723,-1.6709,-1.6683,-1.6593,-1.6639,-1.663,-1.6617,-1.6511,-1.649,-1.6483,-1.6445,-1.6428,-1.6425,-1.6423,-1.6421,-1.6416,-1.6418,0,0,0,0,0,0,-1.691,-1.6886,-1.6782,-1.6774,-1.6813,-1.6723,-1.6706,-1.6687,-1.6593,-1.6577,-1.6619,-1.6612,-1.6497,-1.6487,-1.6478,-1.6492,-1.6424,-1.6421,-1.6419,-1.6414,-1.6417,-1.6419,0,0,0,0,0,0,-1.6913,-1.6901,-1.6787,-1.6827,-1.681,-1.6723,-1.6702,-1.6686,-1.6666,-1.6578,-1.6561,-1.6615,-1.6495,-1.6482,-1.6464,-1.6486,-1.642,-1.6416,-1.6412,-1.6415,-1.6418,-1.6524,0,0,0,0,0,0,-1.6917,-1.6903,-1.6912,-1.6828,-1.6809,-1.6777,-1.6704,-1.6685,-1.666,-1.665,-1.657,-1.6554,-1.6493,-1.6469,-1.646,-1.648,-1.6414,-1.641,-1.6414,-1.6417,-1.6518,-1.6531,-1.6541,0,0,0,0,0,-1.6923,-1.6947,-1.6913,-1.6901,-1.6817,-1.6779,-1.6767,-1.6697,-1.6663,-1.6669,-1.6612,-1.6557,-1.6486,-1.6469,-1.6457,-1.6477,-1.6408,-1.6412,-1.6417,-1.6513,-1.6528,-1.6541,0,0,0,0,0,0,-1.7034,-1.6934,-1.6896,-1.6893,-1.6846,-1.676,-1.6766,-1.6715,-1.6676,-1.6668,-1.6581,-1.6563,-1.6554,-1.6513,-1.6496,-1.6489,-1.6439,-1.6441,-1.6516,-1.653,-1.6541,-1.655,-1.6411,0,0,0,0,0,-1.7059,-1.7037,-1.695,-1.6957,-1.6935,-1.6855,-1.6835,-1.6785,-1.6731,-1.671,-1.6652,-1.6601,-1.6566,-1.6546,-1.651,-1.6512,-1.6491,-1.6519,-1.6531,-1.654,-1.6543,-1.6538,-1.6549,-1.6433,-1.6433,-1.6433,0,0,-1.7108,-1.7051,-1.7043,-1.6978,-1.6935,-1.6912,-1.6838,-1.6819,-1.68,-1.6707,-1.6686,-1.6641,-1.6578,-1.6569,-1.6562,-1.6535,-1.657,-1.6546,-1.6554,-1.6551,-1.6544,-1.6555,-1.6565,-1.6436,-1.6436,-1.6435,0,0,-1.7188,-1.7144,-1.7143,-1.7101,-1.7037,-1.6983,-1.6983,-1.6904,-1.6871,-1.6848,-1.6777,-1.6753,-1.6696,-1.6653,-1.6624,-1.6685,-1.6632,-1.6676,-1.6734,-1.6731,-1.674,-1.6747,-1.6767,-1.6775,-1.6679,-1.6679,-1.6679,0,-1.7258,-1.7223,-1.7149,-1.7133,-1.7105,-1.7019,-1.7016,-1.6979,-1.6906,-1.6888,-1.6858,-1.6784,-1.6735,-1.6714,-1.6729,-1.6709,-1.6704,-1.6684,-1.6745,-1.6752,-1.6758,-1.6775,-1.6783,-1.6685,-1.6684,-1.6683,-1.6683,0,-1.7311,-1.7288,-1.7295,-1.7227,-1.72,-1.7191,-1.7113,-1.7094,-1.7045,-1.6994,-1.697,-1.6909,-1.6858,-1.6849,-1.6801,-1.682,-1.6805,-1.6761,-1.6709,-1.6776,-1.6791,-1.6797,-1.6693,-1.6691,-1.6689,-1.6688,0,0,-1.7458,-1.7348,-1.7352,-1.7319,-1.7241,-1.722,-1.7206,-1.7156,-1.7141,-1.7093,-1.7077,-1.703,-1.6988,-1.6956,-1.6902,-1.6899,-1.6948,-1.6855,-1.6852,-1.6873,-1.6962,-1.6995,-1.7004,-1.6912,-1.6913,-1.6914,-1.6967,0,-1.7524,-1.7495,-1.7426,-1.7417,-1.7393,-1.7311,-1.7297,-1.7247,-1.7198,-1.7169,-1.7114,-1.7081,-1.703,-1.7009,-1.7003,-1.6944,-1.6965,-1.6939,-1.6895,-1.6894,-1.6913,-1.7012,-1.7047,-1.71,-1.6972,-1.6973,-1.6974,0,-1.7597,-1.7554,-1.7544,-1.7465,-1.7452,-1.7442,-1.7389,-1.7364,-1.7303,-1.7267,-1.723,-1.7171,-1.7148,-1.7101,-1.7067,-1.7051,-1.7028,-1.6996,-1.6997,-1.6989,-1.6938,-1.7006,-1.7115,-1.7122,-1.6983,-1.6982,-1.6982,0,-1.7704,-1.7643,-1.7628,-1.7603,-1.7511,-1.7505,-1.7466,-1.7404,-1.7378,-1.7331,-1.7313,-1.7265,-1.7238,-1.72,-1.7128,-1.7101,-1.7102,-1.7049,-1.707,-1.7071,-1.7073,-1.7074,-1.7179,-1.7061,-1.7061,-1.7061,-1.7061,0,-1.7784,-1.778,-1.7675,-1.7666,-1.7658,-1.7578,-1.7572,-1.7525,-1.747,-1.7448,-1.7373,-1.7354,-1.7261,-1.723,-1.7173,-1.7153,-1.7141,-1.711,-1.7095,-1.7116,-1.712,-1.71,-1.7094,-1.7063,-1.7062,-1.7062,-1.7062,0,-1.7902,-1.7831,-1.7809,-1.7724,-1.7702,-1.77,-1.7625,-1.7611,-1.7557,-1.7531,-1.752,-1.7434,-1.7394,-1.7319,-1.7257,-1.7219,-1.721,-1.7184,-1.7231,-1.7221,-1.7245,-1.7244,-1.734,-1.7348,-1.7227,-1.7228,-1.7229,0,-1.7957,-1.7952,-1.7866,-1.7846,-1.781,-1.778,-1.7753,-1.7673,-1.7647,-1.7576,-1.7571,-1.7525,-1.7484,-1.7423,-1.7354,-1.7306,-1.7277,-1.7314,-1.727,-1.729,-1.7276,-1.7276,-1.7274,-1.7325,-1.7326,-1.7328,-1.7329,0,-1.8062,-1.8027,-1.7991,-1.7943,-1.7913,-1.787,-1.7824,-1.7812,-1.772,-1.7695,-1.7653,-1.7621,-1.7558,-1.7512,-1.7453,-1.741,-1.7354,-1.7343,-1.7345,-1.7367,-1.7393,-1.7377,-1.7257,-1.7342,-1.734,-1.7339,-1.7339,-1.7338,-1.8149,-1.814,-1.8077,-1.8039,-1.7996,-1.7953,-1.7936,-1.7879,-1.7844,-1.7787,-1.7741,-1.7702,-1.7639,-1.7554,-1.7514,-1.7481,-1.7455,-1.7458,-1.7459,-1.746,-1.7468,-1.7399,-1.747,-1.747,-1.7469,-1.7469,-1.7469,0,-1.8249,-1.8204,-1.817,-1.8107,-1.8076,-1.8027,-1.7972,-1.7949,-1.7917,-1.7863,-1.7824,-1.7774,-1.7729,-1.7656,-1.7604,-1.7591,-1.7564,-1.758,-1.758,-1.757,-1.7496,-1.7499,-1.7603,-1.7603,-1.7603,-1.7603,-1.7603,-1.7603,-1.8297,-1.8278,-1.8236,-1.8193,-1.8147,-1.811,-1.8083,-1.8042,-1.7999,-1.7948,-1.791,-1.7863,-1.78,-1.7743,-1.7698,-1.7677,-1.7661,-1.7685,-1.7657,-1.7588,-1.7576,-1.7564,-1.7566,-1.7683,-1.7683,-1.7733,-1.7734,-1.7734]},{"header":{"parameterUnit":"m.s-1","parameterCategory":1,"la1":30.2991,"la2":30.254,"lo1":-89.0895,"lo2":-89.0444,"dy":0.0017,"dx":0.0017,"nx":28,"ny":28,"refTime":"2023-08-31T09:00:00:Z","depth":0,"parameterNumber":3,"parameterNumberName":"V-component_of_WINDS"},"data":[0,0,0,0,0,0,0,0,0,0,0,0,0,0,0,0,0,0,0,0,0,0,0,0,0,0,0,0,0,0,0,0,0,0,0,0,0,0,0,0,0,0,0,0,0,0,0,0,0,0,0,0,0,0,0,0,0,0,-3.2686,-3.2687,0,-3.2819,-3.282,-3.2822,-3.283,-3.2828,-3.2827,-3.2825,-3.2957,-3.2962,-3.2967,0,0,0,0,0,0,0,0,0,0,0,0,0,-3.2432,-3.2436,-3.2685,-3.2687,-3.2689,-3.2819,-3.282,-3.2822,-3.283,-3.2828,-3.2827,-3.2825,-3.2955,-3.2961,-3.2967,0,0,0,0,0,0,0,0,0,0,0,0,0,-3.2551,-3.2438,-3.2685,-3.2709,-3.2712,-3.2818,-3.2821,-3.2823,-3.2831,-3.2828,-3.2826,-3.2824,-3.2954,-3.2961,-3.2968,-3.3059,0,0,-3.299,-3.2994,0,0,0,0,0,0,0,0,-3.2544,-3.256,-3.2703,-3.2707,-3.2711,-3.2806,-3.2779,-3.2902,-3.2831,-3.2785,-3.2825,-3.2823,-3.2908,-3.2919,-3.2949,-3.3065,-3.307,-3.2991,-3.2996,-3.2999,-3.3001,0,0,0,0,0,0,0,-3.2536,-3.2555,-3.2738,-3.2705,-3.271,-3.271,-3.2725,-3.2803,-3.2858,-3.2789,-3.279,-3.2806,-3.291,-3.2942,-3.2952,-3.3072,-3.2991,-3.2997,-3.3002,-3.3005,-3.3267,-3.3269,0,0,0,0,0,0,-3.2524,-3.2548,-3.2734,-3.2742,-3.2621,-3.2717,-3.2733,-3.2777,-3.2857,-3.2867,-3.2808,-3.2806,-3.293,-3.2943,-3.2957,-3.3067,-3.2999,-3.3006,-3.301,-3.3264,-3.3267,-3.327,0,0,0,0,0,0,-3.2519,-3.2541,-3.2728,-3.2645,-3.2669,-3.2724,-3.2773,-3.2781,-3.2813,-3.2871,-3.288,-3.2831,-3.2929,-3.2946,-3.3033,-3.3071,-3.3009,-3.3016,-3.3261,-3.3265,-3.3269,-3.3288,0,0,0,0,0,0,-3.2511,-3.2539,-3.2575,-3.2646,-3.2674,-3.2804,-3.2776,-3.2786,-3.2827,-3.2825,-3.2895,-3.2904,-3.2929,-3.3022,-3.304,-3.3081,-3.3021,-3.3258,-3.3263,-3.3268,-3.3285,-3.3292,-3.3299,0,0,0,0,0,-3.2502,-3.2575,-3.2577,-3.2599,-3.2721,-3.2807,-3.2822,-3.285,-3.283,-3.2866,-3.2902,-3.2902,-3.3065,-3.3031,-3.3052,-3.3094,-3.3256,-3.3262,-3.3267,-3.3281,-3.3291,-3.3299,0,0,0,0,0,0,-3.2505,-3.2584,-3.2588,-3.2686,-3.274,-3.2808,-3.2854,-3.286,-3.2919,-3.2915,-3.2946,-3.2962,-3.3047,-3.3079,-3.3041,-3.3185,-3.3158,-3.3168,-3.3161,-3.3171,-3.3178,-3.3168,-3.3027,0,0,0,0,0,-3.2517,-3.2583,-3.2647,-3.2727,-3.2754,-3.28,-3.2838,-3.2855,-3.2911,-3.2934,-3.2977,-3.303,-3.3093,-3.3134,-3.3195,-3.3289,-3.3303,-3.3329,-3.3336,-3.3342,-3.335,-3.34,-3.3412,-3.3289,-3.3289,-3.3289,0,0,-3.2543,-3.2594,-3.2633,-3.2729,-3.2773,-3.2838,-3.2819,-3.2888,-3.2936,-3.2944,-3.3029,-3.3062,-3.3123,-3.3214,-3.3256,-3.3243,-3.3387,-3.3349,-3.3353,-3.3358,-3.3407,-3.3419,-3.3429,-3.3293,-3.3292,-3.3292,0,0,-3.2623,-3.2669,-3.274,-3.2784,-3.2851,-3.2881,-3.2897,-3.2965,-3.2988,-3.3074,-3.3081,-3.3137,-3.3245,-3.3288,-3.3324,-3.3418,-3.3419,-3.3437,-3.3475,-3.3524,-3.3533,-3.3542,-3.3574,-3.3586,-3.3445,-3.3445,-3.3445,0,-3.2645,-3.2745,-3.2775,-3.2845,-3.2886,-3.2897,-3.2968,-3.3009,-3.3092,-3.3119,-3.3104,-3.3239,-3.3281,-3.3381,-3.3404,-3.3434,-3.3452,-3.3429,-3.353,-3.3539,-3.3547,-3.3578,-3.3591,-3.3447,-3.3447,-3.3446,-3.3446,0,-3.2769,-3.2838,-3.2887,-3.2968,-3.3014,-3.3084,-3.3123,-3.3166,-3.3178,-3.3209,-3.3295,-3.3346,-3.3416,-3.3442,-3.3454,-3.3543,-3.3533,-3.3524,-3.3496,-3.356,-3.359,-3.3602,-3.3449,-3.3449,-3.3448,-3.3448,0,0,-3.2855,-3.2951,-3.2968,-3.3005,-3.3079,-3.3131,-3.32,-3.3271,-3.3307,-3.3363,-3.3421,-3.3511,-3.3503,-3.3544,-3.3561,-3.3604,-3.3674,-3.359,-3.3591,-3.3602,-3.3773,-3.3778,-3.3792,-3.3675,-3.3678,-3.368,-3.3767,0,-3.2941,-3.3067,-3.3095,-3.3202,-3.3265,-3.3276,-3.3336,-3.3387,-3.3417,-3.3473,-3.3505,-3.3568,-3.3553,-3.3578,-3.3621,-3.3656,-3.3708,-3.365,-3.3727,-3.3729,-3.371,-3.3808,-3.3814,-3.3894,-3.3779,-3.3781,-3.3782,0,-3.306,-3.312,-3.3233,-3.3298,-3.3325,-3.3379,-3.3445,-3.35,-3.3556,-3.3575,-3.362,-3.3633,-3.3703,-3.3672,-3.3768,-3.3728,-3.3761,-3.3783,-3.3787,-3.3794,-3.3759,-3.3816,-3.3921,-3.3932,-3.3801,-3.38,-3.3798,0,-3.3109,-3.3218,-3.33,-3.3331,-3.3408,-3.3446,-3.3479,-3.3534,-3.3574,-3.3632,-3.3658,-3.3722,-3.3757,-3.3805,-3.3834,-3.3809,-3.3927,-3.3899,-3.3942,-3.3941,-3.3966,-3.3964,-3.4076,-3.3989,-3.3989,-3.3988,-3.3988,0,-3.3202,-3.3271,-3.3323,-3.3373,-3.3449,-3.3481,-3.3555,-3.3588,-3.3637,-3.3692,-3.3705,-3.3756,-3.3791,-3.3847,-3.3869,-3.3944,-3.396,-3.3976,-3.398,-3.3974,-3.3972,-3.3995,-3.399,-3.3992,-3.3991,-3.399,-3.399,0,-3.327,-3.3308,-3.3397,-3.3464,-3.3482,-3.3535,-3.3591,-3.3639,-3.3669,-3.3738,-3.3756,-3.3803,-3.3869,-3.3902,-3.3984,-3.3999,-3.4083,-3.4085,-3.4064,-3.4066,-3.4107,-3.4102,-3.4237,-3.4256,-3.4157,-3.4158,-3.4159,0,-3.3327,-3.338,-3.3452,-3.3491,-3.3526,-3.3588,-3.3629,-3.3661,-3.3703,-3.3771,-3.381,-3.3877,-3.3932,-3.4036,-3.4076,-3.4138,-3.4141,-3.4184,-3.415,-3.4142,-3.414,-3.4136,-3.4141,-3.419,-3.4191,-3.4191,-3.4192,0,-3.3422,-3.3438,-3.3498,-3.3565,-3.3614,-3.3667,-3.372,-3.375,-3.379,-3.3836,-3.3904,-3.3947,-3.4031,-3.4096,-3.4161,-3.4194,-3.4199,-3.4203,-3.4215,-3.4209,-3.4194,-3.4201,-3.4079,-3.4199,-3.4198,-3.4198,-3.4197,-3.4197,-3.3486,-3.3533,-3.3591,-3.3657,-3.37,-3.3748,-3.3796,-3.3832,-3.389,-3.3962,-3.3977,-3.4048,-3.4102,-3.419,-3.4224,-3.428,-3.427,-3.4289,-3.4294,-3.4298,-3.4299,-3.4186,-3.4292,-3.4291,-3.4291,-3.4291,-3.4291,0,-3.3581,-3.3619,-3.3679,-3.3753,-3.3804,-3.3806,-3.3864,-3.3906,-3.3969,-3.402,-3.4074,-3.4151,-3.4214,-3.4259,-3.4323,-3.4358,-3.4362,-3.4374,-3.4371,-3.4378,-3.4305,-3.4287,-3.4369,-3.4369,-3.4369,-3.4369,-3.4369,-3.4369,-3.3637,-3.3716,-3.3739,-3.3839,-3.3876,-3.3948,-3.398,-3.4024,-3.4064,-3.4151,-3.4204,-3.4233,-3.428,-3.4348,-3.4405,-3.4416,-3.4438,-3.445,-3.4461,-3.4391,-3.4383,-3.4375,-3.4358,-3.4455,-3.4455,-3.4529,-3.453,-3.453]}]]